CW0237 Weather Reports


time (UTC)temp
F
wind
direction
speed
knots
gust
knots
rain 1hr
in
rain 24hr
in
rain mn
in
humidity
%
barometer
mb
20260507135206 53 261 0.9 5.2 0.00 0.24 0.18 87 1006.6
20260507133705 51 256 1.7 6.1 0.00 0.24 0.18 91 1006.6
20260507132704 50 244 1.7 2.6 0.00 0.24 0.18 93 1006.7
20260507131706 50 253 0.9 4.3 0.00 0.24 0.18 94 1006.8
20260507130705 50 276 0.9 4.3 0.00 0.24 0.18 94 1006.7
20260507125704 50 352 0.9 2.6 0.00 0.24 0.18 94 1007.0
20260507125204 50 338 0.9 2.6 0.00 0.24 0.18 94 1007.0
20260507124704 49 291 0.9 2.6 0.00 0.24 0.18 94 1006.9
20260507123704 50 276 0.9 1.7 0.00 0.24 0.18 94 1006.7
20260507122205 50 353 0.0 1.7 0.00 0.24 0.18 94 1007.1
20260507121706 50 342 0.0 1.7 0.00 0.24 0.18 94 1007.1
20260507121205 50 344 0.9 2.6 0.00 0.24 0.18 94 1007.2
20260507115204 50 337 0.9 2.6 0.00 0.24 0.18 94 1006.7
20260507114704 50 347 0.0 0.9 0.00 0.24 0.18 94 1006.8
20260507112705 49 314 0.0 0.9 0.01 0.24 0.18 94 1006.8
20260507112205 49 311 0.0 0.9 0.01 0.24 0.18 94 1006.7
20260507111706 49 311 0.0 0.9 0.01 0.24 0.18 94 1006.7
20260507110204 49 321 0.0 0.9 0.02 0.24 0.18 93 1006.5
20260507105704 49 301 0.0 0.0 0.02 0.24 0.18 93 1006.6
20260507105204 49 333 0.0 0.0 0.03 0.24 0.18 93 1006.4
20260507104205 49 294 0.0 0.9 0.03 0.24 0.18 93 1006.0
20260507103704 49 350 0.0 0.0 0.03 0.24 0.18 93 1006.1
20260507102705 49 284 0.0 0.0 0.03 0.23 0.17 93 1006.3
20260507101204 49 289 0.0 0.9 0.04 0.23 0.17 93 1006.5
20260507100703 49 276 0.0 0.0 0.03 0.22 0.16 93 1006.3
20260507093704 49 311 0.0 1.7 0.05 0.21 0.15 92 1005.8
20260507085704 50 291 1.7 2.6 0.08 0.19 0.13 91 1005.8
20260507084206 50 277 0.0 0.9 0.07 0.17 0.11 91 1006.1
20260507083204 50 306 0.0 0.9 0.07 0.16 0.10 90 1006.0
20260507082704 51 276 0.9 0.9 0.07 0.15 0.09 90 1006.1
20260507081204 51 276 0.9 1.7 0.05 0.12 0.06 90 1005.8
20260507080203 51 284 0.0 0.0 0.04 0.11 0.05 89 1005.9
20260507075704 52 307 0.0 1.7 0.04 0.11 0.05 89 1006.4
20260507074705 52 339 0.9 6.1 0.03 0.10 0.04 89 1006.0
20260507074207 53 314 0.9 1.7 0.03 0.10 0.04 89 1006.1
20260507073204 53 282 0.9 2.6 0.02 0.09 0.03 89 1006.2
20260507072204 53 350 0.9 2.6 0.00 0.07 0.01 89 1005.5
20260507070704 53 0 0.0 1.7 0.00 0.07 0.01 89 1004.8
20260507070203 53 0 0.9 1.7 0.00 0.07 0.01 90 1004.9
20260507065704 53 0 0.9 4.3 0.00 0.07 0.01 90 1004.9
20260507065205 54 344 1.7 2.6 0.00 0.07 0.01 90 1005.1
20260507064705 54 277 0.9 2.6 0.00 0.07 0.01 91 1005.0
20260507064206 54 278 0.9 5.2 0.00 0.07 0.01 91 1004.9
20260507063704 55 276 2.6 6.1 0.00 0.07 0.01 91 1005.0
20260507060705 56 268 0.0 2.6 0.00 0.07 0.01 92 1005.1
20260507060204 56 267 0.0 1.7 0.00 0.07 0.01 92 1005.0
20260507055204 56 268 1.7 5.2 0.00 0.07 0.01 92 1005.2
20260507054205 56 267 0.9 2.6 0.00 0.07 0.01 93 1005.3
20260507053705 56 267 0.9 2.6 0.00 0.07 0.01 93 1005.3
20260507052704 57 276 1.7 6.1 0.00 0.07 0.01 93 1005.5
20260507052203 57 282 0.9 2.6 0.00 0.07 0.01 93 1005.5
20260507051703 57 282 0.9 2.6 0.00 0.07 0.01 93 1005.5
20260507051204 57 282 0.9 2.6 0.00 0.07 0.01 93 1005.4
20260507050704 58 282 0.9 2.6 0.00 0.07 0.01 93 1005.2
20260507050204 58 282 0.9 2.6 0.01 0.07 0.01 93 1005.2
20260507045704 58 282 1.7 5.2 0.01 0.07 0.01 93 1005.3
20260507043206 59 219 0.9 2.6 0.01 0.07 0.01 93 1005.2
20260507042205 59 219 0.9 2.6 0.01 0.07 0.01 93 1005.3
20260507041204 59 219 0.9 2.6 0.01 0.07 0.01 93 1005.3
20260507035704 59 219 0.9 2.6 0.00 0.06 0.06 93 1005.3
20260507035204 59 219 1.7 5.2 0.00 0.06 0.06 93 1005.3
20260507034705 59 197 1.7 6.1 0.00 0.06 0.06 93 1005.3
20260507034205 59 186 0.9 2.6 0.00 0.06 0.06 93 1005.4
20260507032204 59 171 1.7 5.2 0.00 0.06 0.06 94 1005.2
20260507031704 59 174 1.7 4.3 0.00 0.06 0.06 94 1005.1
20260507031204 59 175 3.5 7.8 0.00 0.06 0.06 94 1005.0
20260507030204 59 171 1.7 4.3 0.00 0.06 0.06 94 1005.1
20260507025704 59 171 2.6 6.1 0.00 0.06 0.06 94 1005.1
20260507025203 59 171 0.9 2.6 0.00 0.06 0.06 94 1005.1
20260507024704 59 171 1.7 5.2 0.00 0.06 0.06 94 1005.1
20260507024207 59 169 1.7 5.2 0.00 0.06 0.06 93 1004.9
20260507023703 59 171 1.7 5.2 0.00 0.06 0.06 93 1004.8
20260507023204 59 171 2.6 6.1 0.00 0.06 0.06 93 1004.9
20260507022705 59 171 1.7 4.3 0.00 0.06 0.06 93 1004.9
20260507021707 59 171 0.9 4.3 0.00 0.06 0.06 93 1005.0
20260507020204 59 171 2.6 4.3 0.00 0.06 0.06 93 1005.0
20260507015704 58 171 1.7 7.0 0.00 0.06 0.06 93 1004.9
20260507014205 58 171 2.6 6.1 0.00 0.06 0.06 93 1005.1
20260507012204 58 178 1.7 5.2 0.00 0.06 0.06 93 1005.2
20260507011704 58 178 1.7 7.8 0.00 0.06 0.06 93 1005.3
20260507010204 58 180 1.7 4.3 0.00 0.06 0.06 93 1005.4
20260507002703 58 190 2.6 6.1 0.01 0.06 0.06 92 1005.3
20260507001204 58 181 2.6 6.1 0.01 0.06 0.06 92 1005.1
20260507000208 58 184 1.7 6.1 0.01 0.06 0.06 92 1005.1
20260506234204 58 173 1.7 6.1 0.01 0.06 0.06 92 1005.0
20260506233703 58 173 0.9 2.6 0.01 0.06 0.06 92 1005.0
20260506233204 58 173 1.7 5.2 0.00 0.05 0.05 92 1005.0
20260506232204 59 196 1.7 6.1 0.00 0.05 0.05 92 1005.0
20260506231704 59 183 1.7 4.3 0.00 0.05 0.05 92 1005.0
20260506230204 59 185 1.7 6.1 0.00 0.05 0.05 92 1005.1
20260506225703 59 190 1.7 4.3 0.00 0.05 0.05 92 1005.1
20260506225203 59 191 1.7 7.0 0.01 0.05 0.05 92 1005.1
20260506224705 59 171 2.6 7.8 0.01 0.05 0.05 92 1005.1
20260506224204 59 179 1.7 4.3 0.01 0.05 0.05 92 1005.1
20260506223704 59 179 1.7 10.4 0.01 0.05 0.05 92 1005.0
20260506220704 60 183 4.3 8.7 0.01 0.05 0.05 91 1005.3
20260506212705 60 186 0.9 5.2 0.02 0.04 0.04 90 1005.7
20260506211703 60 178 1.7 6.1 0.02 0.04 0.04 90 1005.7
20260506211206 60 178 2.6 7.8 0.02 0.04 0.04 90 1005.8
20260506210704 60 183 2.6 7.8 0.02 0.04 0.04 90 1005.7
20260506210203 60 192 2.6 7.8 0.02 0.04 0.04 89 1005.7
20260506204704 61 189 2.6 7.8 0.02 0.03 0.03 89 1005.8
20260506204204 61 176 2.6 6.1 0.02 0.03 0.03 89 1005.9
20260506203704 61 183 2.6 6.1 0.01 0.02 0.02 89 1005.9
20260506203204 61 1 2.6 7.8 0.01 0.02 0.02 88 1005.9
20260506202706 61 180 3.5 8.7 0.01 0.02 0.02 88 1006.0
20260506200204 62 0 3.5 7.8 0.02 0.02 0.02 87 1006.1
20260506193705 63 355 3.5 7.8 0.01 0.01 0.01 84 1006.1
20260506191704 65 0 4.3 12.2 0.00 0.00 0.00 81 1006.2
20260506190704 66 0 3.5 7.8 0.00 0.00 0.00 78 1006.2
20260506190206 66 354 4.3 10.4 0.00 0.00 0.00 77 1006.3
20260506185203 67 165 5.2 11.3 0.00 0.00 0.00 74 1006.3
20260506184704 68 208 5.2 10.4 0.00 0.00 0.00 73 1006.3
20260506184203 68 202 1.7 7.0 0.00 0.00 0.00 73 1006.3
20260506182203 69 14 2.6 12.2 0.00 0.00 0.00 70 1006.5
20260506180204 71 180 4.3 10.4 0.00 0.00 0.00 68 1006.6
20260506175704 71 304 3.5 7.0 0.00 0.00 0.00 67 1006.6
20260506173704 71 0 5.2 15.6 0.00 0.00 0.00 66 1006.7
20260506173204 72 0 5.2 11.3 0.00 0.00 0.00 65 1006.8
20260506172705 72 0 4.3 11.3 0.00 0.00 0.00 65 1006.8
20260506171204 72 188 6.1 13.0 0.00 0.00 0.00 64 1006.8
20260506170703 72 193 5.2 20.9 0.00 0.00 0.00 64 1006.8
20260506165205 73 184 4.3 13.9 0.00 0.00 0.00 64 1006.8
20260506164203 72 0 6.1 19.1 0.00 0.00 0.00 65 1006.9
20260506163205 72 0 4.3 14.8 0.00 0.00 0.00 66 1007.1
20260506162703 72 0 4.3 10.4 0.00 0.00 0.00 65 1007.2
20260506162205 72 0 7.0 13.9 0.00 0.00 0.00 65 1007.2
20260506161208 72 243 4.3 17.4 0.00 0.00 0.00 64 1007.3
20260506160204 73 199 4.3 12.2 0.00 0.00 0.00 64 1007.6
20260506154205 72 182 4.3 10.4 0.00 0.00 0.00 66 1008.0
20260506153204 72 0 5.2 17.4 0.00 0.00 0.00 65 1008.0
20260506152706 72 335 4.3 8.7 0.00 0.00 0.00 66 1008.1
20260506152204 72 185 5.2 13.0 0.00 0.00 0.00 67 1008.1
20260506151704 71 0 2.6 13.9 0.00 0.00 0.00 68 1008.1
20260506151204 71 356 5.2 12.2 0.00 0.00 0.00 68 1008.2
20260506145204 71 352 1.7 10.4 0.00 0.00 0.00 69 1008.2
20260506144704 71 354 4.3 8.7 0.00 0.00 0.00 68 1008.3
20260506144205 71 353 5.2 10.4 0.00 0.00 0.00 69 1008.4
20260506143704 70 193 5.2 8.7 0.00 0.00 0.00 68 1008.3
20260506142703 70 138 4.3 7.8 0.00 0.00 0.00 68 1008.1
20260506142205 70 182 4.3 8.7 0.00 0.00 0.00 69 1008.1
20260506141705 70 330 4.3 11.3 0.00 0.00 0.00 69 1008.2
20260506141204 70 194 6.1 14.8 0.00 0.00 0.00 70 1008.2
20260506140204 70 215 2.6 13.9 0.00 0.00 0.00 71 1008.1